When you browse on this site, cookies collect data to enhance your experience and personalize the content and advertising you see.
Visit our Privacy Policy to learn more. By continuing to use the site, you agree to this use of cookies and data.
  • în România
  • Lista ţărilor
  • Pe 7 zile
  • Temperatura apei
  • Meteo pe hartă
  • Widget-uri
  • user-avatar
    Intrare

    Meteo pe oră la Bocşa

    Astăzi, 26 August, Luni

    Timp Temperatura Precipitaţii Vânt Presiune Umiditate
    00:00 +24°C° 0.1 mm 3 m/s 745 mmHg 59%
    01:00 +24°C° 0.1 mm 3 m/s 745 mmHg 60%
    02:00 +24°C° 0 mm 3 m/s 745 mmHg 62%
    03:00 +23°C° 0 mm 2 m/s 745 mmHg 63%
    04:00 +23°C° 0 mm 2 m/s 745 mmHg 65%
    05:00 +24°C° 0 mm 2 m/s 745 mmHg 60%
    06:00 +26°C° 0 mm 2 m/s 746 mmHg 55%
    07:00 +27°C° 0 mm 2 m/s 746 mmHg 50%
    08:00 +29°C° 0 mm 3 m/s 746 mmHg 44%
    09:00 +33°C° 0 mm 3 m/s 746 mmHg 38%
    10:00 +35°C° 0 mm 4 m/s 746 mmHg 32%
    11:00 +36°C° 0 mm 4 m/s 746 mmHg 30%
    12:00 +36°C° 0 mm 4 m/s 746 mmHg 29%
    13:00 +37°C° 0 mm 4 m/s 745 mmHg 27%
    14:00 +37°C° 0 mm 4 m/s 745 mmHg 28%
    15:00 +37°C° 0 mm 4 m/s 744 mmHg 28%
    16:00 +36°C° 0 mm 4 m/s 744 mmHg 29%
    17:00 +33°C° 0 mm 4 m/s 744 mmHg 37%
    18:00 +29°C° 0 mm 4 m/s 744 mmHg 46%
    19:00 +26°C° 0 mm 3 m/s 744 mmHg 54%
    20:00 +25°C° 0.5 mm 3 m/s 745 mmHg 60%
    21:00 +24°C° 0.5 mm 2 m/s 745 mmHg 65%
    22:00 +23°C° 0.5 mm 2 m/s 745 mmHg 71%
    23:00 +23°C° 0.1 mm 2 m/s 745 mmHg 70%

    Mâine, 27 August, Marţi

    Timp Temperatura Precipitaţii Vânt Presiune Umiditate
    00:00 +21°C° 0.1 mm 2 m/s 745 mmHg 70%
    01:00 +21°C° 0.1 mm 2 m/s 745 mmHg 70%
    02:00 +21°C° 0 mm 2 m/s 745 mmHg 69%
    03:00 +21°C° 0 mm 2 m/s 745 mmHg 69%
    04:00 +21°C° 0 mm 2 m/s 745 mmHg 69%
    05:00 +23°C° 0 mm 2 m/s 745 mmHg 65%
    06:00 +24°C° 0 mm 1 m/s 745 mmHg 61%
    07:00 +26°C° 0 mm 1 m/s 745 mmHg 58%
    08:00 +28°C° 0 mm 2 m/s 746 mmHg 48%
    09:00 +31°C° 0 mm 2 m/s 746 mmHg 39%
    10:00 +35°C° 0 mm 3 m/s 746 mmHg 29%
    11:00 +35°C° 0 mm 3 m/s 746 mmHg 28%
    12:00 +36°C° 0 mm 3 m/s 746 mmHg 27%
    13:00 +36°C° 0 mm 3 m/s 745 mmHg 26%
    14:00 +35°C° 0.1 mm 3 m/s 745 mmHg 31%
    15:00 +34°C° 0.1 mm 2 m/s 745 mmHg 35%
    16:00 +32°C° 0.1 mm 2 m/s 744 mmHg 39%
    17:00 +29°C° 0.2 mm 2 m/s 744 mmHg 48%
    18:00 +27°C° 0.2 mm 3 m/s 744 mmHg 56%
    19:00 +25°C° 0.2 mm 3 m/s 744 mmHg 64%
    20:00 +24°C° 0 mm 3 m/s 745 mmHg 63%
    21:00 +24°C° 0 mm 2 m/s 745 mmHg 62%
    22:00 +24°C° 0 mm 2 m/s 745 mmHg 61%
    23:00 +24°C° 0 mm 2 m/s 745 mmHg 59%

    Poimâine, 28 August, Miercuri

    Timp Temperatura Precipitaţii Vânt Presiune Umiditate
    00:00 +24°C° 0 mm 2 m/s 745 mmHg 57%
    01:00 +23°C° 0 mm 2 m/s 745 mmHg 55%
    02:00 +24°C° 0 mm 3 m/s 745 mmHg 54%
    03:00 +24°C° 0 mm 3 m/s 745 mmHg 53%
    04:00 +24°C° 0 mm 3 m/s 745 mmHg 52%
    05:00 +25°C° 0 mm 3 m/s 745 mmHg 50%
    06:00 +26°C° 0 mm 3 m/s 745 mmHg 48%
    07:00 +27°C° 0 mm 4 m/s 746 mmHg 45%
    08:00 +30°C° 0 mm 4 m/s 746 mmHg 40%
    09:00 +33°C° 0 mm 4 m/s 746 mmHg 34%
    10:00 +35°C° 0 mm 4 m/s 746 mmHg 28%
    11:00 +35°C° 0 mm 4 m/s 745 mmHg 28%
    12:00 +35°C° 0 mm 3 m/s 745 mmHg 27%
    13:00 +36°C° 0 mm 3 m/s 745 mmHg 26%
    14:00 +35°C° 0 mm 3 m/s 744 mmHg 28%
    15:00 +34°C° 0 mm 2 m/s 744 mmHg 30%
    16:00 +32°C° 0 mm 2 m/s 744 mmHg 31%
    17:00 +31°C° 0 mm 2 m/s 744 mmHg 35%
    18:00 +29°C° 0 mm 2 m/s 743 mmHg 38%
    19:00 +27°C° 0 mm 2 m/s 743 mmHg 42%
    20:00 +27°C° 0 mm 2 m/s 744 mmHg 44%
    21:00 +26°C° 0 mm 2 m/s 744 mmHg 46%
    22:00 +25°C° 0 mm 2 m/s 744 mmHg 48%
    23:00 +25°C° 0 mm 2 m/s 744 mmHg 47%

    29 August, Joi

    Timp Temperatura Precipitaţii Vânt Presiune Umiditate
    00:00 +25°C° 0 mm 2 m/s 744 mmHg 47%
    01:00 +24°C° 0 mm 2 m/s 744 mmHg 47%
    02:00 +24°C° 0 mm 2 m/s 744 mmHg 47%
    03:00 +24°C° 0 mm 2 m/s 744 mmHg 47%
    04:00 +23°C° 0 mm 2 m/s 744 mmHg 47%
    05:00 +24°C° 0 mm 2 m/s 744 mmHg 43%
    06:00 +26°C° 0 mm 2 m/s 744 mmHg 40%
    07:00 +27°C° 0 mm 2 m/s 744 mmHg 36%
    08:00 +29°C° 0 mm 2 m/s 744 mmHg 32%
    09:00 +31°C° 0 mm 2 m/s 744 mmHg 27%
    10:00 +35°C° 0 mm 2 m/s 744 mmHg 22%
    11:00 +35°C° 0 mm 2 m/s 744 mmHg 22%
    12:00 +35°C° 0 mm 2 m/s 744 mmHg 22%
    13:00 +36°C° 0 mm 2 m/s 744 mmHg 22%
    14:00 +35°C° 0 mm 2 m/s 743 mmHg 24%
    15:00 +34°C° 0 mm 2 m/s 743 mmHg 25%
    16:00 +34°C° 0 mm 2 m/s 743 mmHg 27%
    17:00 +31°C° 0 mm 1 m/s 742 mmHg 31%
    18:00 +28°C° 0 mm 1 m/s 742 mmHg 36%
    19:00 +26°C° 0 mm 1 m/s 742 mmHg 40%
    20:00 +26°C° 0 mm 1 m/s 742 mmHg 41%
    21:00 +25°C° 0 mm 1 m/s 743 mmHg 43%
    22:00 +24°C° 0 mm 1 m/s 743 mmHg 44%
    23:00 +24°C° 0 mm 1 m/s 743 mmHg 44%

    30 August, Vineri

    Timp Temperatura Precipitaţii Vânt Presiune Umiditate
    00:00 +24°C° 0 mm 1 m/s 743 mmHg 44%
    01:00 +23°C° 0 mm 1 m/s 743 mmHg 44%
    02:00 +23°C° 0 mm 1 m/s 743 mmHg 45%
    03:00 +22°C° 0 mm 1 m/s 743 mmHg 46%
    04:00 +22°C° 0 mm 1 m/s 743 mmHg 46%
    05:00 +23°C° 0 mm 1 m/s 743 mmHg 43%
    06:00 +25°C° 0 mm 1 m/s 744 mmHg 40%
    07:00 +26°C° 0 mm 1 m/s 744 mmHg 37%
    08:00 +28°C° 0 mm 2 m/s 744 mmHg 33%
    09:00 +30°C° 0 mm 2 m/s 745 mmHg 29%
    10:00 +32°C° 0 mm 2 m/s 745 mmHg 25%
    11:00 +34°C° 0 mm 3 m/s 745 mmHg 25%
    12:00 +35°C° 0 mm 3 m/s 744 mmHg 25%
    13:00 +35°C° 0 mm 3 m/s 744 mmHg 26%
    14:00 +35°C° 0 mm 3 m/s 744 mmHg 27%
    15:00 +35°C° 0 mm 3 m/s 743 mmHg 28%
    16:00 +34°C° 0 mm 3 m/s 743 mmHg 29%
    17:00 +31°C° 0 mm 3 m/s 743 mmHg 36%
    18:00 +28°C° 0 mm 2 m/s 743 mmHg 43%
    19:00 +26°C° 0 mm 2 m/s 743 mmHg 50%
    20:00 +25°C° 0 mm 2 m/s 743 mmHg 53%
    21:00 +24°C° 0 mm 2 m/s 743 mmHg 56%
    22:00 +23°C° 0 mm 2 m/s 743 mmHg 59%
    23:00 +23°C° 0 mm 2 m/s 744 mmHg 59%

    31 August, Sâmbătă

    Timp Temperatura Precipitaţii Vânt Presiune Umiditate
    00:00 +23°C° 0 mm 2 m/s 744 mmHg 59%
    01:00 +23°C° 0 mm 2 m/s 744 mmHg 59%
    02:00 +21°C° 0 mm 2 m/s 744 mmHg 58%
    03:00 +21°C° 0 mm 2 m/s 744 mmHg 57%
    04:00 +20°C° 0 mm 2 m/s 744 mmHg 56%
    05:00 +23°C° 0 mm 2 m/s 744 mmHg 51%
    06:00 +24°C° 0 mm 2 m/s 744 mmHg 46%
    07:00 +25°C° 0 mm 2 m/s 745 mmHg 40%
    08:00 +27°C° 0 mm 2 m/s 745 mmHg 36%
    09:00 +29°C° 0 mm 2 m/s 745 mmHg 31%
    10:00 +31°C° 0 mm 2 m/s 745 mmHg 26%
    11:00 +32°C° 0 mm 2 m/s 745 mmHg 25%
    12:00 +34°C° 0 mm 2 m/s 745 mmHg 24%
    13:00 +35°C° 0 mm 2 m/s 745 mmHg 23%
    14:00 +35°C° 0 mm 3 m/s 744 mmHg 24%
    15:00 +34°C° 0 mm 3 m/s 744 mmHg 24%
    16:00 +34°C° 0 mm 3 m/s 744 mmHg 25%
    17:00 +30°C° 0 mm 3 m/s 744 mmHg 29%
    18:00 +28°C° 0 mm 3 m/s 744 mmHg 33%
    19:00 +25°C° 0 mm 3 m/s 744 mmHg 37%
    20:00 +25°C° 0 mm 3 m/s 744 mmHg 39%
    21:00 +24°C° 0 mm 3 m/s 744 mmHg 40%
    22:00 +23°C° 0 mm 2 m/s 744 mmHg 41%
    23:00 +23°C° 0 mm 2 m/s 744 mmHg 41%
    Arată mai mult